Find Kosmos-1051

NORAD ID: 11128 Int'l Des: 1978-109 Owner: GUKOSR Country: SU operational
LEOCIRCULAR

Live Position

Loading 3D Globe...

About Kosmos-1051

Description loading...

Upcoming Passes

Passes for default location (London). Set your location on the main map for personalized predictions.

Altitude History

Loading altitude history...

Two-Line Element Set

1 11128U 78109A 26105.84803707 .00000014 00000-0 18286-3 0 9992
2 11128 74.0142 137.9671 0057695 124.4277 48.0111 12.55966154171295
Epoch: Apr 15, 2026 • Age: 14 hours

Current Status

Altitude 1506.8 km
Velocity 7.09 km/s
Sub-Earth Point -71.95°S, 77.15°E
Launch Date Dec 5, 1978
Age 47.3 years
Type other

Technical Details

Classification Payload
Mass 60.00 kg
Dry Mass 60.00 kg
Total Mass 60.00 kg
Length 0.80 m
Diameter 0.80 m
Span 0.80 m
Shape Poly
Manufacturer NPOPM
Bus Type Strela-1 11F625
Phase Status In Orbit
Owner/State GUKOSR/SU

Most Searched